FW6754 Weather Reports


Display with metric or nautical units.
time (UTC)temp
F
wind
direction
speed
MPH
gust
MPH
rain 1hr
in
rain 24hr
in
rain mn
in
humidity
%
barometer
mb
20260902204411 59 0.0 0.0 0.00 0.00 0.00 10 1024.8
20260902203411 59 0.0 0.0 0.00 0.00 0.00 10 1024.9
20260902202412 59 0.0 0.0 0.00 0.00 0.00 10 1024.8
20260902201912 60 0.0 0.0 0.00 0.00 0.00 10 1024.7
20260902201412 60 0.0 0.0 0.00 0.00 0.00 10 1024.7
20260902200912 60 0.0 0.0 0.00 0.00 0.00 10 1024.7
20260902195912 61 0.0 0.0 0.00 0.00 0.00 10 1024.6
20260902195412 61 0.0 0.0 0.00 0.00 0.00 10 1024.7
20260902194911 61 0.0 0.0 0.00 0.00 0.00 10 1024.5
20260902194411 61 0.0 0.0 0.00 0.00 0.00 10 1024.5
20260902193912 62 0.0 0.0 0.00 0.00 0.00 10 1024.4
20260902193411 62 0.0 0.0 0.00 0.00 0.00 10 1024.3
20260902192412 63 0.0 0.0 0.00 0.00 0.00 10 1024.3
20260902191912 63 0.0 0.0 0.00 0.00 0.00 10 1024.2
20260902191412 63 0.0 0.0 0.00 0.00 0.00 10 1024.1
20260902190912 64 0.0 0.0 0.00 0.00 0.00 10 1024.0
20260902190411 64 0.0 0.0 0.00 0.00 0.00 10 1024.0
20260902185912 65 0.0 0.0 0.00 0.00 0.00 10 1023.9
20260902185413 65 0.0 0.0 0.00 0.00 0.00 10 1023.8
20260902184913 65 0.0 0.0 0.00 0.00 0.00 10 1023.8
20260902184412 66 0.0 0.0 0.00 0.00 0.00 10 1023.7
20260902183912 66 0.0 0.0 0.00 0.00 0.00 10 1023.7
20260902183412 67 0.0 0.0 0.00 0.00 0.00 10 1023.7
20260902182911 68 0.0 0.0 0.00 0.00 0.00 10 1023.5
20260902182412 68 0.0 0.0 0.00 0.00 0.00 10 1023.4
20260902181912 69 0.0 0.0 0.00 0.00 0.00 10 1023.4
20260902181411 69 0.0 0.0 0.00 0.00 0.00 10 1023.2
20260902180411 71 0.0 0.0 0.00 0.00 0.00 89 1023.2
20260902175411 73 0.0 0.0 0.00 0.00 0.00 75 1023.0
20260902174911 75 0.0 0.0 0.00 0.00 0.00 69 1023.0
20260902174411 77 0.0 0.0 0.00 0.00 0.00 64 1022.9
20260902173412 77 0.0 0.0 0.00 0.00 0.00 59 1022.8
20260902172912 77 0.0 0.0 0.00 0.00 0.00 59 1022.8
20260902172412 77 0.0 0.0 0.00 0.00 0.00 55 1022.8
20260902171411 78 0.0 0.0 0.00 0.00 0.00 52 1022.8
20260902170912 78 0.0 0.0 0.00 0.00 0.00 48 1022.8
20260902170411 78 0.0 0.0 0.00 0.00 0.00 48 1022.7
20260902165412 79 0.0 0.0 0.00 0.00 0.00 46 1022.7
20260902164911 79 0.0 0.0 0.00 0.00 0.00 46 1022.6
20260902164411 79 0.0 0.0 0.00 0.00 0.00 46 1022.5
20260902162912 80 0.0 0.0 0.00 0.00 0.00 44 1022.7
20260902162412 80 0.0 0.0 0.00 0.00 0.00 45 1022.7
20260902161912 80 0.0 0.0 0.00 0.00 0.00 45 1022.7
20260902161412 80 0.0 0.0 0.00 0.00 0.00 44 1022.7
20260902160912 81 0.0 0.0 0.00 0.00 0.00 44 1022.6
20260902160411 81 0.0 0.0 0.00 0.00 0.00 43 1022.7
20260902155912 82 0.0 0.0 0.00 0.00 0.00 44 1022.6
20260902155412 81 0.0 0.0 0.00 0.00 0.00 44 1022.7
20260902154912 82 0.0 0.0 0.00 0.00 0.00 44 1022.7
20260902154412 81 0.0 0.0 0.00 0.00 0.00 44 1022.6
20260902153912 81 0.0 0.0 0.00 0.00 0.00 44 1022.6
20260902153412 80 0.0 0.0 0.00 0.00 0.00 44 1022.7
20260902152912 81 0.0 0.0 0.00 0.00 0.00 45 1022.7
20260902152412 81 0.0 0.0 0.00 0.00 0.00 45 1022.7
20260902151912 81 0.0 0.0 0.00 0.00 0.00 47 1022.8
20260902151411 80 0.0 0.0 0.00 0.00 0.00 47 1022.8
20260902150912 81 0.0 0.0 0.00 0.00 0.00 47 1022.8
20260902150412 81 0.0 0.0 0.00 0.00 0.00 48 1022.8
20260902145911 81 0.0 0.0 0.00 0.00 0.00 47 1022.8
20260902145411 81 0.0 0.0 0.00 0.00 0.00 46 1022.9
20260902144412 83 0.0 0.0 0.00 0.00 0.00 46 1022.9
20260902143911 84 0.0 0.0 0.00 0.00 0.00 46 1022.9
20260902143411 83 0.0 0.0 0.00 0.00 0.00 45 1022.9
20260902142911 83 0.0 0.0 0.00 0.00 0.00 46 1022.9
20260902141912 82 0.0 0.0 0.00 0.00 0.00 47 1023.0
20260902141411 82 0.0 0.0 0.00 0.00 0.00 49 1022.9
20260902140911 82 0.0 0.0 0.00 0.00 0.00 51 1022.9
20260902135912 81 0.0 0.0 0.00 0.00 0.00 53 1023.0
20260902135412 81 0.0 0.0 0.00 0.00 0.00 54 1023.1
20260902134912 80 0.0 0.0 0.00 0.00 0.00 53 1023.1
20260902134412 80 0.0 0.0 0.00 0.00 0.00 52 1023.2
20260902133912 81 0.0 0.0 0.00 0.00 0.00 54 1023.2
20260902133411 81 0.0 0.0 0.00 0.00 0.00 55 1023.2
20260902132411 80 0.0 0.0 0.00 0.00 0.00 51 1023.3
20260902131912 81 0.0 0.0 0.00 0.00 0.00 51 1023.4
20260902131412 82 0.0 0.0 0.00 0.00 0.00 50 1023.3
20260902130912 85 0.0 0.0 0.00 0.00 0.00 52 1023.1
20260902130412 84 0.0 0.0 0.00 0.00 0.00 55 1023.2
20260902125912 81 0.0 0.0 0.00 0.00 0.00 57 1023.4
20260902125412 80 0.0 0.0 0.00 0.00 0.00 58 1023.4
20260902124412 80 0.0 0.0 0.00 0.00 0.00 57 1023.5
20260902123911 80 0.0 0.0 0.00 0.00 0.00 55 1023.5
20260902122912 83 0.0 0.0 0.00 0.00 0.00 53 1023.5
20260902122412 83 0.0 0.0 0.00 0.00 0.00 59 1023.3
20260902121913 81 0.0 0.0 0.00 0.00 0.00 59 1023.6
20260902121412 80 0.0 0.0 0.00 0.00 0.00 61 1023.7
20260902120912 79 0.0 0.0 0.00 0.00 0.00 61 1023.9
20260902120411 79 0.0 0.0 0.00 0.00 0.00 60 1023.8
20260902115812 80 0.0 0.0 0.00 0.00 0.00 62 1023.7
20260902115712 80 0.0 0.0 0.00 0.00 0.00 62 1023.7
20260902115612 80 0.0 0.0 0.00 0.00 0.00 63 1023.7
20260902115111 80 0.0 0.0 0.00 0.00 0.00 67 1023.7
20260902114111 79 0.0 0.0 0.00 0.00 0.00 67 1023.8
20260902113606 79 0.0 0.0 0.00 0.00 0.00 66 1023.8
20260902102912 77 0.0 0.0 0.00 0.00 0.00 74 1024.2
20260902102412 77 0.0 0.0 0.00 0.00 0.00 74 1024.2
20260902101411 78 0.0 0.0 0.00 0.00 0.00 75 1024.1
20260902100911 78 0.0 0.0 0.00 0.00 0.00 74 1024.1
20260902100411 78 0.0 0.0 0.00 0.00 0.00 78 1024.1
20260902095413 76 0.0 0.0 0.00 0.00 0.00 82 1024.1
20260902094912 76 0.0 0.0 0.00 0.00 0.00 86 1024.2
20260902094411 76 0.0 0.0 0.00 0.00 0.00 89 1024.0
20260902093911 76 0.0 0.0 0.00 0.00 0.00 90 1024.1
20260902093411 75 0.0 0.0 0.00 0.00 0.00 94 1023.9
20260902092911 75 0.0 0.0 0.00 0.00 0.00 97 1024.1
20260902091913 74 0.0 0.0 0.00 0.00 0.00 10 1024.0
20260902091411 73 0.0 0.0 0.00 0.00 0.00 10 1024.1
20260902090912 74 0.0 0.0 0.00 0.00 0.00 10 1024.0
20260902090412 74 0.0 0.0 0.00 0.00 0.00 10 1023.9
20260902085911 73 0.0 0.0 0.00 0.00 0.00 10 1024.0
20260902085412 72 0.0 0.0 0.00 0.00 0.00 10 1024.0
20260902084912 71 0.0 0.0 0.00 0.00 0.00 10 1024.0
20260902084412 71 0.0 0.0 0.00 0.00 0.00 10 1024.1
20260902083912 70 0.0 0.0 0.00 0.00 0.00 10 1024.0
20260902083411 70 0.0 0.0 0.00 0.00 0.00 10 1024.0
20260902082911 69 0.0 0.0 0.00 0.00 0.00 10 1023.9
20260902082411 68 0.0 0.0 0.00 0.00 0.00 10 1023.9
20260902081911 68 0.0 0.0 0.00 0.00 0.00 10 1023.9
20260902081411 67 0.0 0.0 0.00 0.00 0.00 10 1023.9
20260902080912 67 0.0 0.0 0.00 0.00 0.00 10 1023.9
20260902080412 66 0.0 0.0 0.00 0.00 0.00 10 1023.9
20260902075911 66 0.0 0.0 0.00 0.00 0.00 10 1023.9
20260902075411 65 0.0 0.0 0.00 0.00 0.00 10 1024.0
20260902074912 64 0.0 0.0 0.00 0.00 0.00 10 1024.0
20260902074412 64 0.0 0.0 0.00 0.00 0.00 10 1024.0
20260902073912 63 0.0 0.0 0.00 0.00 0.00 10 1023.9
20260902073412 62 0.0 0.0 0.00 0.00 0.00 10 1024.0
20260902072911 62 0.0 0.0 0.00 0.00 0.00 10 1024.0
20260902071912 60 0.0 0.0 0.00 0.00 0.00 10 1023.9
20260902071412 60 0.0 0.0 0.00 0.00 0.00 10 1023.7
20260902070912 59 0.0 0.0 0.00 0.00 0.00 10 1023.8
20260902070412 58 0.0 0.0 0.00 0.00 0.00 10 1023.9
20260902065912 58 0.0 0.0 0.00 0.00 0.00 10 1023.9
20260902065413 58 0.0 0.0 0.00 0.00 0.00 10 1024.1
20260902064912 57 0.0 0.0 0.00 0.00 0.00 10 1024.1
20260902064411 57 0.0 0.0 0.00 0.00 0.00 10 1024.2
20260902063911 56 0.0 0.0 0.00 0.00 0.00 10 1024.1
20260902063411 56 0.0 0.0 0.00 0.00 0.00 10 1024.1
20260902062912 56 0.0 0.0 0.00 0.00 0.00 10 1024.1
20260902062412 55 0.0 0.0 0.00 0.00 0.00 10 1024.0
20260902061912 55 0.0 0.0 0.00 0.00 0.00 10 1024.1
20260902060912 55 0.0 0.0 0.00 0.00 0.00 10 1024.0
20260902055912 55 0.0 0.0 0.00 0.00 0.00 10 1023.8
20260902055412 55 0.0 0.0 0.00 0.00 0.00 10 1023.9
20260902054916 55 0.0 0.0 0.00 0.00 0.00 10 1023.8
20260902053912 55 0.0 0.0 0.00 0.00 0.00 10 1023.9
20260902053412 55 0.0 0.0 0.00 0.00 0.00 10 1023.9
20260902052912 54 0.0 0.0 0.00 0.00 0.00 10 1023.9
20260902052412 54 0.0 0.0 0.00 0.00 0.00 10 1023.8
20260902051912 54 0.0 0.0 0.00 0.00 0.00 10 1023.8
20260902051412 54 0.0 0.0 0.00 0.00 0.00 10 1023.8
20260902050912 54 0.0 0.0 0.00 0.00 0.00 10 1023.8
20260902050411 54 0.0 0.0 0.00 0.00 0.00 10 1023.8
20260902045912 54 0.0 0.0 0.00 0.00 0.00 10 1023.6
20260902045411 54 0.0 0.0 0.00 0.00 0.00 10 1023.8
20260902044411 54 0.0 0.0 0.00 0.00 0.00 10 1023.7
20260902043911 54 0.0 0.0 0.00 0.00 0.00 10 1023.8
20260902043412 53 0.0 0.0 0.00 0.00 0.00 10 1023.7
20260902042911 53 0.0 0.0 0.00 0.00 0.00 10 1023.8
20260902041912 53 0.0 0.0 0.00 0.00 0.00 10 1023.7
20260902041413 53 0.0 0.0 0.00 0.00 0.00 10 1023.7
20260902040911 53 0.0 0.0 0.00 0.00 0.00 10 1023.7
20260902035411 53 0.0 0.0 0.00 0.00 0.00 10 1023.5
20260902034911 53 0.0 0.0 0.00 0.00 0.00 10 1023.5
20260902033412 53 0.0 0.0 0.00 0.00 0.00 10 1023.8
20260902032912 53 0.0 0.0 0.00 0.00 0.00 10 1023.8
20260902032411 53 0.0 0.0 0.00 0.00 0.00 10 1023.7
20260902031912 53 0.0 0.0 0.00 0.00 0.00 10 1023.7
20260902031411 53 0.0 0.0 0.00 0.00 0.00 10 1023.6
20260902030413 53 0.0 0.0 0.00 0.00 0.00 10 1023.5
20260902025912 53 0.0 0.0 0.00 0.00 0.00 10 1023.5
20260902025411 53 0.0 0.0 0.00 0.00 0.00 10 1023.5
20260902024912 54 0.0 0.0 0.00 0.00 0.00 10 1023.5
20260902024412 54 0.0 0.0 0.00 0.00 0.00 10 1023.5
20260902023912 53 0.0 0.0 0.00 0.00 0.00 10 1023.7
20260902023412 53 0.0 0.0 0.00 0.00 0.00 10 1023.6
20260902022912 53 0.0 0.0 0.00 0.00 0.00 10 1023.7
20260902022411 53 0.0 0.0 0.00 0.00 0.00 10 1023.6
20260902021911 53 0.0 0.0 0.00 0.00 0.00 10 1023.6
20260902021412 53 0.0 0.0 0.00 0.00 0.00 10 1023.7
20260902020912 53 0.0 0.0 0.00 0.00 0.00 10 1023.8
20260902020411 53 0.0 0.0 0.00 0.00 0.00 10 1023.8
20260902015911 53 0.0 0.0 0.00 0.00 0.00 10 1024.0
20260902015411 53 0.0 0.0 0.00 0.00 0.00 10 1023.8
20260902014912 53 0.0 0.0 0.00 0.00 0.00 10 1023.8
20260902013912 54 0.0 0.0 0.00 0.00 0.00 10 1023.9
20260902013412 54 0.0 0.0 0.00 0.00 0.00 10 1024.0
20260902012913 54 0.0 0.0 0.00 0.00 0.00 10 1023.9
20260902012412 54 0.0 0.0 0.00 0.00 0.00 10 1023.9
20260902011912 54 0.0 0.0 0.00 0.00 0.00 10 1023.9
20260902011412 54 0.0 0.0 0.00 0.00 0.00 10 1023.9
20260902010912 54 0.0 0.0 0.00 0.00 0.00 10 1024.0
20260902010412 54 0.0 0.0 0.00 0.00 0.00 10 1024.0
20260902005911 54 0.0 0.0 0.00 0.00 0.00 10 1024.2
20260902004912 54 0.0 0.0 0.00 0.00 0.00 10 1024.1
20260902004412 54 0.0 0.0 0.00 0.00 0.00 10 1024.1
20260902003912 54 0.0 0.0 0.00 0.00 0.00 10 1023.9
20260902003412 54 0.0 0.0 0.00 0.00 0.00 10 1024.0
20260902002912 54 0.0 0.0 0.00 0.00 0.00 10 1023.9
20260902002412 55 0.0 0.0 0.00 0.00 0.00 10 1023.7
20260902001912 55 0.0 0.0 0.00 0.00 0.00 10 1023.8
20260902001412 55 0.0 0.0 0.00 0.00 0.00 10 1023.8
20260902000912 55 0.0 0.0 0.00 0.00 0.00 10 1023.9
20260902000414 55 0.0 0.0 0.00 0.00 0.00 10 1023.8
20260901235912 55 0.0 0.0 0.00 0.00 0.00 10 1023.7
20260901235412 55 0.0 0.0 0.00 0.00 0.00 10 1023.7
20260901234912 55 0.0 0.0 0.00 0.00 0.00 10 1023.8
20260901234412 56 0.0 0.0 0.00 0.00 0.00 10 1023.8
20260901233912 56 0.0 0.0 0.00 0.00 0.00 10 1023.9
20260901233411 56 0.0 0.0 0.00 0.00 0.00 10 1023.9
20260901232911 56 0.0 0.0 0.00 0.00 0.00 10 1023.9
20260901232411 56 0.0 0.0 0.00 0.00 0.00 10 1023.8
20260901231911 56 0.0 0.0 0.00 0.00 0.00 10 1023.9
20260901231412 56 0.0 0.0 0.00 0.00 0.00 10 1024.0
20260901230913 56 0.0 0.0 0.00 0.00 0.00 10 1023.9
20260901230412 56 0.0 0.0 0.00 0.00 0.00 10 1024.0
20260901225912 56 0.0 0.0 0.00 0.00 0.00 10 1023.8
20260901224912 56 0.0 0.0 0.00 0.00 0.00 10 1023.9
20260901224412 57 0.0 0.0 0.00 0.00 0.00 10 1023.9
20260901222412 57 0.0 0.0 0.00 0.00 0.00 10 1023.8
20260901221912 57 0.0 0.0 0.00 0.00 0.00 10 1024.0
20260901221412 57 0.0 0.0 0.00 0.00 0.00 10 1024.0
20260901220912 57 0.0 0.0 0.00 0.00 0.00 10 1024.0
20260901220413 58 0.0 0.0 0.00 0.00 0.00 10 1023.9
20260901215911 58 0.0 0.0 0.00 0.00 0.00 10 1023.9
20260901214912 58 0.0 0.0 0.00 0.00 0.00 10 1023.6
20260901214412 58 0.0 0.0 0.00 0.00 0.00 10 1023.6
20260901213912 58 0.0 0.0 0.00 0.00 0.00 10 1023.6
20260901213413 58 0.0 0.0 0.00 0.00 0.00 10 1023.6
20260901212912 58 0.0 0.0 0.00 0.00 0.00 10 1023.6
20260901212412 59 0.0 0.0 0.00 0.00 0.00 10 1023.7
20260901211912 59 0.0 0.0 0.00 0.00 0.00 10 1023.6
20260901211412 59 0.0 0.0 0.00 0.00 0.00 10 1023.7
20260901210911 60 0.0 0.0 0.00 0.00 0.00 10 1023.7
20260901205912 60 0.0 0.0 0.00 0.00 0.00 10 1023.6
20260901205412 60 0.0 0.0 0.00 0.00 0.00 10 1023.7
20260901204912 60 0.0 0.0 0.00 0.00 0.00 10 1023.6